TimeEST,TemperatureF,Dew PointF,Humidity,Sea Level PressureIn,VisibilityMPH,Wind Direction,Wind SpeedMPH,Gust SpeedMPH,PrecipitationIn,Events,Conditions,WindDirDegrees,DateUTC
12:15 AM,35.6,33.1,91,29.75,7.0,NNW,13.8,24.2,N/A,Rain,Light Rain,340,2013-02-17 05:15:00
12:35 AM,35.6,33.4,92,29.77,10.0,North,10.4,26.5,N/A,Rain,Light Rain,350,2013-02-17 05:35:00
12:55 AM,35.2,32.9,91,29.78,10.0,NNW,9.2,21.9,N/A,,Light Drizzle,340,2013-02-17 05:55:00
1:15 AM,35.4,32.9,91,29.78,10.0,NNW,13.8,20.7,N/A,,Light Drizzle,340,2013-02-17 06:15:00
1:35 AM,34.9,32.9,92,29.78,7.0,NNW,10.4,20.7,N/A,,Drizzle,340,2013-02-17 06:35:00
1:55 AM,34.7,32.0,90,29.79,7.0,NNW,11.5,20.7,N/A,,Overcast,340,2013-02-17 06:55:00
2:15 AM,34.9,32.9,92,29.80,7.0,NNW,13.8,19.6,N/A,,Light Drizzle,330,2013-02-17 07:15:00
2:35 AM,34.9,32.0,89,29.80,7.0,NW,11.5,20.7,N/A,,Light Drizzle,320,2013-02-17 07:35:00
2:55 AM,35.2,30.6,83,29.80,10.0,NNW,12.7,25.3,N/A,,Overcast,330,2013-02-17 07:55:00
3:15 AM,34.9,28.4,77,29.80,10.0,NW,15.0,26.5,N/A,,Overcast,320,2013-02-17 08:15:00
3:35 AM,34.5,27.1,74,29.81,10.0,NNW,17.3,28.8,N/A,,Overcast,340,2013-02-17 08:35:00
3:55 AM,34.2,25.3,70,29.82,10.0,NW,15.0,28.8,N/A,,Scattered Clouds,320,2013-02-17 08:55:00
4:15 AM,33.8,25.2,71,29.83,10.0,NNW,15.0,23.0,N/A,,Clear,330,2013-02-17 09:15:00
4:35 AM,33.8,23.5,66,29.84,10.0,NNW,15.0,28.8,N/A,,Clear,330,2013-02-17 09:35:00
4:55 AM,33.6,22.3,63,29.85,10.0,NNW,15.0,27.6,N/A,,Clear,330,2013-02-17 09:55:00
5:15 AM,33.4,21.7,62,29.86,10.0,NNW,11.5,26.5,N/A,,Clear,330,2013-02-17 10:15:00
5:35 AM,33.3,20.3,59,29.86,10.0,NNW,18.4,26.5,N/A,,Clear,330,2013-02-17 10:35:00
5:55 AM,32.9,20.7,61,29.87,10.0,NNW,15.0,25.3,N/A,,Clear,330,2013-02-17 10:55:00
6:15 AM,32.9,21.7,64,29.88,10.0,NW,12.7,25.3,N/A,,Clear,320,2013-02-17 11:15:00
6:35 AM,32.7,21.6,64,29.89,10.0,NNW,17.3,27.6,N/A,,Clear,330,2013-02-17 11:35:00
7:15 AM,33.1,19.2,57,29.91,10.0,NW,19.6,27.6,N/A,,Clear,320,2013-02-17 12:15:00
7:35 AM,33.4,17.2,52,29.92,10.0,NW,13.8,27.6,N/A,,Clear,320,2013-02-17 12:35:00
7:55 AM,33.8,18.9,54,29.93,10.0,NW,13.8,28.8,N/A,,Clear,320,2013-02-17 12:55:00
8:15 AM,34.2,19.4,55,29.94,10.0,NNW,15.0,25.3,N/A,,Clear,330,2013-02-17 13:15:00
8:55 AM,35.2,20.1,54,29.96,10.0,NW,11.5,20.7,N/A,,Clear,320,2013-02-17 13:55:00
9:15 AM,34.9,21.4,58,29.96,10.0,NW,12.7,24.2,N/A,,Scattered Clouds,310,2013-02-17 14:15:00
9:55 AM,34.5,23.0,63,29.98,10.0,NW,11.5,27.6,N/A,,Mostly Cloudy,310,2013-02-17 14:55:00
10:15 AM,35.1,21.9,59,29.98,10.0,NW,12.7,24.2,N/A,,Scattered Clouds,310,2013-02-17 15:15:00
10:35 AM,35.8,21.0,55,29.99,10.0,WNW,19.6,26.5,N/A,,Scattered Clouds,300,2013-02-17 15:35:00
10:55 AM,35.6,20.3,54,29.99,10.0,WNW,12.7,21.9,N/A,,Scattered Clouds,300,2013-02-17 15:55:00
11:15 AM,35.1,21.2,57,30.00,10.0,WNW,18.4,24.2,N/A,,Mostly Cloudy,300,2013-02-17 16:15:00
11:35 AM,34.7,18.5,52,30.00,10.0,WNW,13.8,23.0,N/A,,Mostly Cloudy,300,2013-02-17 16:35:00
11:55 AM,35.8,19.0,51,30.00,10.0,WNW,18.4,27.6,N/A,,Scattered Clouds,300,2013-02-17 16:55:00
12:15 PM,36.0,19.0,50,30.01,10.0,West,10.4,25.3,N/A,,Scattered Clouds,280,2013-02-17 17:15:00
12:35 PM,34.3,19.6,55,30.00,10.0,WNW,17.3,26.5,N/A,,Mostly Cloudy,300,2013-02-17 17:35:00
12:55 PM,35.1,19.8,54,30.01,10.0,WNW,11.5,24.2,N/A,,Mostly Cloudy,290,2013-02-17 17:55:00
1:15 PM,34.9,19.0,52,30.01,10.0,WNW,13.8,23.0,N/A,,Mostly Cloudy,290,2013-02-17 18:15:00
1:55 PM,32.5,18.5,56,30.02,10.0,NW,13.8,23.0,N/A,,Overcast,310,2013-02-17 18:55:00
2:15 PM,33.3,16.9,51,30.02,10.0,NW,12.7,20.7,N/A,,Overcast,310,2013-02-17 19:15:00
2:35 PM,32.9,17.4,53,30.02,10.0,NW,12.7,24.2,N/A,,Overcast,310,2013-02-17 19:35:00
2:55 PM,32.9,16.5,51,30.03,10.0,WNW,15.0,27.6,N/A,,Overcast,300,2013-02-17 19:55:00
3:15 PM,34.3,16.3,48,30.03,10.0,WNW,19.6,28.8,N/A,,Overcast,290,2013-02-17 20:15:00
3:35 PM,33.8,16.0,48,30.04,10.0,WNW,18.4,26.5,N/A,,Overcast,300,2013-02-17 20:35:00
3:55 PM,34.2,15.1,46,30.04,10.0,WNW,16.1,25.3,N/A,,Overcast,300,2013-02-17 20:55:00
4:15 PM,34.7,14.2,43,30.05,10.0,WNW,18.4,27.6,N/A,,Mostly Cloudy,300,2013-02-17 21:15:00
4:35 PM,34.0,15.4,47,30.05,10.0,WNW,12.7,27.6,N/A,,Overcast,300,2013-02-17 21:35:00
4:55 PM,32.9,14.4,47,30.07,10.0,NW,16.1,25.3,N/A,,Mostly Cloudy,310,2013-02-17 21:55:00
5:15 PM,33.1,14.5,47,30.07,10.0,NW,15.0,24.2,N/A,,Mostly Cloudy,310,2013-02-17 22:15:00
5:35 PM,32.9,14.7,47,30.09,10.0,NW,9.2,24.2,N/A,,Mostly Cloudy,310,2013-02-17 22:35:00
5:55 PM,32.5,14.0,46,30.10,10.0,NW,12.7,24.2,N/A,,Mostly Cloudy,310,2013-02-17 22:55:00
6:15 PM,32.5,12.7,44,30.11,10.0,WNW,13.8,24.2,N/A,,Scattered Clouds,300,2013-02-17 23:15:00
6:35 PM,32.4,11.3,42,30.12,10.0,WNW,16.1,24.2,N/A,,Clear,300,2013-02-17 23:35:00
6:55 PM,32.5,10.0,39,30.13,10.0,NW,17.3,27.6,N/A,,Clear,310,2013-02-17 23:55:00
7:15 PM,32.5,10.4,40,30.14,10.0,NW,18.4,29.9,N/A,,Clear,310,2013-02-18 00:15:00
7:35 PM,32.7,10.9,40,30.15,10.0,NW,17.3,27.6,N/A,,Clear,310,2013-02-18 00:35:00
7:55 PM,32.5,11.8,42,30.16,10.0,NW,17.3,23.0,N/A,,Clear,320,2013-02-18 00:55:00
8:15 PM,32.5,10.0,39,30.17,10.0,NW,13.8,27.6,N/A,,Clear,310,2013-02-18 01:15:00
8:35 PM,32.7,9.5,38,30.18,10.0,NW,15.0,26.5,N/A,,Clear,320,2013-02-18 01:35:00
8:55 PM,32.7,11.1,41,30.19,10.0,NW,10.4,20.7,N/A,,Clear,320,2013-02-18 01:55:00
9:15 PM,32.5,10.8,40,30.19,10.0,NW,16.1,23.0,N/A,,Clear,310,2013-02-18 02:15:00
9:35 PM,32.7,9.9,39,30.20,10.0,NW,9.2,23.0,N/A,,Clear,320,2013-02-18 02:35:00
9:55 PM,32.5,9.7,39,30.20,10.0,NW,12.7,21.9,N/A,,Clear,320,2013-02-18 02:55:00
10:15 PM,32.4,10.2,40,30.21,10.0,NNW,10.4,18.4,N/A,,Clear,330,2013-02-18 03:15:00
10:35 PM,32.7,9.0,37,30.21,10.0,NW,12.7,23.0,N/A,,Clear,320,2013-02-18 03:35:00
10:55 PM,32.7,10.4,40,30.21,10.0,NW,12.7,23.0,N/A,,Clear,320,2013-02-18 03:55:00
11:15 PM,32.4,10.0,39,30.22,10.0,NNW,15.0,25.3,N/A,,Clear,330,2013-02-18 04:15:00
11:35 PM,32.4,9.1,38,30.22,10.0,NW,13.8,24.2,N/A,,Clear,320,2013-02-18 04:35:00
11:55 PM,32.0,11.1,42,30.22,10.0,NW,11.5,21.9,N/A,,Clear,320,2013-02-18 04:55:00